Miles City, MT

5:17 PM MST on November 18, 2017 (GMT -0700)
Wiley

Weather History for KMLS - March, 2013

Change the Weather History Date:

Thursday, March 14, 2013

  Actual Average Record
Temperature  
Mean Temperature 53 °F 34 °F  
Max Temperature 70 °F 46 °F 75 °F (2015)
Min Temperature 35 °F 22 °F -18 °F (1947)
Degree Days  
Heating Degree Days 12 31  
Month to date heating degree days 426 472  
Since 1 July heating degree days 5620 6206  
Cooling Degree Days 0 0  
Month to date cooling degree days 0 0  
Year to date cooling degree days 0 0  
Growing Degree Days 2 (Base 50)    
Moisture  
Dew Point 32 °F    
Average Humidity 52    
Maximum Humidity 82    
Minimum Humidity 22    
Precipitation  
Precipitation 0.00 in 0.01 in 0.53 in (2001)
Month to date precipitation 0.17 0.20  
Year to date precipitation 0.36 0.75  
Sea Level Pressure  
Sea Level Pressure 30.05 in    
Wind  
Wind Speed 9 mph (WSW)    
Max Wind Speed 21 mph    
Max Gust Speed 25 mph    
Visibility 10 miles    
Events      
T = Trace of Precipitation, MM = Missing Value Source: NWS Daily Summary

Daily Weather History Graph

Daily Weather History Graph

Search for Another Location

Airport or City:

Trip Planner

Search our weather history database for the weather conditions in past years. The results will help you decide how hot, cold, wet, or windy it might be!

Date:

Astronomy

Mar. 14, 2013 Rise Set
Actual Time 7:17 AM MDT 7:08 PM MDT
Civil Twilight 6:47 AM MDT 7:38 PM MDT
Nautical Twilight 6:12 AM MDT 8:13 PM MDT
Astronomical Twilight 5:37 AM MDT 8:49 PM MDT
Moon 8:20 AM MDT (3/14) 10:41 PM MDT (3/14)
Length of Visible Light 12h 50m
Length of Day
11h 50m
Waxing Crescent, 9% of the Moon is Illuminated
Mar 14
Waxing Crescent
Mar 19
First Quarter
Mar 27
Full
Apr 2
Last Quarter
Apr 10
New

Hourly Weather History & Observations

Time (MDT) Temp. Windchill Dew Point Humidity Pressure Visibility Wind Dir Wind Speed Gust Speed Precip Events Conditions
12:53 AM 42.1 °F 37.1 °F 32.0 °F 67% 30.09 in 10.0 mi WSW 8.1 mph - N/A   Clear
1:53 AM 41.0 °F 38.0 °F 32.0 °F 70% 30.09 in 10.0 mi West 4.6 mph - N/A   Clear
2:53 AM 37.9 °F 32.7 °F 30.9 °F 76% 30.11 in 10.0 mi West 6.9 mph - N/A   Clear
3:53 AM 37.9 °F 33.5 °F 30.9 °F 76% 30.09 in 10.0 mi SSE 5.8 mph - N/A   Clear
4:53 AM 39.0 °F 34.8 °F 30.9 °F 73% 30.09 in 10.0 mi South 5.8 mph - N/A   Clear
5:53 AM 37.0 °F 31.6 °F 30.9 °F 79% 30.12 in 10.0 mi SSE 6.9 mph - N/A   Clear
6:53 AM 35.1 °F 31.0 °F 30.0 °F 82% 30.12 in 10.0 mi SSE 4.6 mph - N/A   Clear
7:53 AM 35.1 °F 29.3 °F 30.0 °F 82% 30.12 in 10.0 mi SSE 6.9 mph - N/A   Clear
8:53 AM 39.0 °F - 32.0 °F 76% 30.12 in 10.0 mi Calm Calm - N/A   Clear
9:53 AM 45.0 °F 42.6 °F 33.1 °F 63% 30.10 in 10.0 mi South 4.6 mph - N/A   Clear
10:53 AM 52.0 °F - 34.0 °F 50% 30.09 in 10.0 mi South 8.1 mph - N/A   Clear
11:53 AM 60.1 °F - 33.1 °F 36% 30.07 in 10.0 mi WSW 10.4 mph - N/A   Mostly Cloudy
12:53 PM 66.0 °F - 32.0 °F 28% 30.04 in 10.0 mi WSW 9.2 mph - N/A   Clear
1:53 PM 69.1 °F - 28.9 °F 22% 30.02 in 10.0 mi WSW 16.1 mph - N/A   Clear
2:53 PM 70.0 °F - 28.9 °F 22% 30.00 in 10.0 mi West 13.8 mph - N/A   Clear
3:53 PM 68.0 °F - 28.9 °F 23% 30.00 in 10.0 mi NW 10.4 mph - N/A   Mostly Cloudy
4:53 PM 68.0 °F - 30.0 °F 24% 29.99 in 10.0 mi WNW 6.9 mph - N/A   Scattered Clouds
5:53 PM 64.9 °F - 33.1 °F 31% 29.99 in 10.0 mi North 11.5 mph - N/A   Overcast
6:53 PM 60.1 °F - 34.0 °F 38% 30.00 in 10.0 mi North 6.9 mph - N/A   Overcast
7:53 PM 55.0 °F - 37.9 °F 53% 30.01 in 10.0 mi NNE 9.2 mph - N/A   Overcast
8:53 PM 52.0 °F - 37.9 °F 59% 30.00 in 10.0 mi NNE 9.2 mph - N/A   Overcast
9:53 PM 50.0 °F - 39.0 °F 66% 29.99 in 10.0 mi NNE 13.8 mph - N/A   Clear
10:53 PM 43.0 °F 34.5 °F 35.1 °F 74% 29.97 in 10.0 mi NE 19.6 mph - N/A   Overcast
11:53 PM 39.9 °F 32.1 °F 34.0 °F 79% 29.93 in 10.0 mi NNE 13.8 mph - N/A   Clear